This demonstration page uses our WeatherBlox Daily Observations layout. Learn more.

Left ArrowRight Arrow

41.86663, -103.66717

Hourly Observations for January 14, 2021

Temp ( °F °C ) Dew Point ( °F °C ) Humidity (%) Winds ( mph kmh ) Pressure ( in mb ) Visibility ( mi km ) Precip ( " mm )
12:53 am 00:53 Partly Cloudy 33 0.6 18 -7.8 54 54 WNW 16 26 29.96 1015 10 16 0.00 0.00
1:53 am 01:53 Mostly Clear 32 0 18 -7.8 56 56 NW 14 22 30.01 1016 10 16 0.00 0.00
2:53 am 02:53 Clear 31 -0.6 18 -7.8 59 59 NW 21 33 30.04 1017 10 16 0.00 0.00
3:53 am 03:53 Clear 33 0.6 14 -10 45 45 NW 25 41 30.06 1018 10 16 0.00 0.00
4:53 am 04:53 Clear 32 0 13 -10.6 45 45 NW 24 39 30.08 1019 10 16 0.00 0.00
5:53 am 05:53 Clear 31 -0.6 11 -11.7 43 43 WNW 22 35 30.11 1020 10 16 0.00 0.00
6:53 am 06:53 Clear 29 -1.7 13 -10.6 51 51 WNW 16 26 30.14 1021 10 16 0.00 0.00
7:53 am 07:53 Sunny 30 -1.1 13 -10.6 49 49 WNW 15 24 30.14 1021 10 16 0.00 0.00
8:53 am 08:53 Sunny 31 -0.6 14 -10 49 49 W 15 24 30.19 1022 10 16 0.00 0.00
9:53 am 09:53 Mostly Cloudy 33 0.6 13 -10.6 43 43 WNW 16 26 30.18 1022 10 16 0.00 0.00
11:53 am 11:53 Windy with Snow Likely 29 -1.7 19 -7.2 66 66 N 36 57 30.18 1022 2 3 0.00 0.00
11:57 am 11:57 Windy with Snow Likely 27 -2.8 21 -6.1 78 78 N 30 48 30.27 1025 1 1 0.00 0.00
12:04 pm 12:04 Cloudy with Snow 27 -3 21 -6 80 80 NNW 29 46 30.27 1025 1 1 0.00 0.00
12:20 pm 12:20 Cloudy with Snow 27 -2.8 22 -5.6 81 81 NNW 32 52 30.27 1025 1 1 0.00 0.00
12:34 pm 12:34 Windy with Snow Likely 29 -1.7 21 -6.1 72 72 NNW 31 50 30.24 1024 2 3 0.00 0.00
12:42 pm 12:42 Windy with Snow Likely 29 -1.7 19 -7.2 66 66 NW 22 35 30.23 1024 8 13 0.00 0.00
12:50 pm 12:50 Cloudy 30 -1 19 -7 64 64 NW 28 44 30.22 1023 10 16 0.00 0.00
12:53 pm 12:53 Cloudy 30 -1.1 18 -7.8 61 61 NW 24 39 30.16 1021 10 16 0.00 0.00
1:53 pm 13:53 Mostly Sunny 34 1.1 16 -8.9 48 48 NW 28 44 30.15 1021 10 16 0.00 0.00
2:53 pm 14:53 Sunny 33 0.6 13 -10.6 43 43 NW 28 44 30.16 1021 10 16 0.00 0.00
3:53 pm 15:53 Mostly Sunny 33 0.6 13 -10.6 43 43 NNW 24 39 30.17 1022 10 16 0.00 0.00
5:53 pm 17:53 Clear 30 -1.1 12 -11.1 47 47 NW 24 39 30.20 1023 10 16 0.00 0.00
7:53 pm 19:53 Clear 30 -1.1 9 -12.8 41 41 NW 28 44 30.22 1024 10 16 0.00 0.00
8:53 pm 20:53 Clear 29 -1.7 8 -13.3 41 41 NW 31 50 30.22 1023 10 16 0.00 0.00
9:53 pm 21:53 Clear 29 -1.7 5 -15 36 36 NW 38 61 30.22 1023 10 16 0.00 0.00
10:53 pm 22:53 Clear 29 -1.7 5 -15 36 36 NW 35 56 30.22 1023 10 16 0.00 0.00
11:53 pm 23:53 Clear 28 -2.2 4 -15.6 35 35 NW 31 50 30.22 1023 10 16 0.00 0.00

Powered by AerisWeather